Location: Unspecified
(0.0000°N, 0.0000°E)
Time: 21:36:24
(UTC+00:00)

Tiros 1 despin weight - All Passes

Search period start: 21 October 2014 00:00
Search period end: 31 October 2014 00:00
Orbit: 601 x 652 km, 48.2° (Epoch: 20 October)

Date Brightness Start Highest point End Pass type
(mag) Time Alt. Az. Time Alt. Az. Time Alt. Az.
21 Oct - 05:40:09 10° SSW 05:44:50 60° SE 05:49:27 10° NE daylight
21 Oct - 07:25:24 10° WNW 07:26:28 11° NW 07:27:31 10° NW daylight
21 Oct - 17:49:50 10° NW 17:54:15 79° SW 17:58:43 10° SE daylight
22 Oct - 04:19:48 10° SSE 04:22:20 14° SE 04:24:51 10° E visible
22 Oct - 05:59:27 10° SW 06:03:58 46° NW 06:08:27 10° NNE daylight
22 Oct - 16:28:29 10° N 16:31:52 21° NE 16:35:16 10° E daylight
22 Oct - 18:09:43 10° WNW 18:13:24 26° SW 18:17:08 10° S visible
23 Oct - 04:37:09 10° SSW 04:41:33 38° SE 04:45:55 10° ENE visible
23 Oct - 06:20:07 10° W 06:23:09 17° NW 06:26:09 10° N daylight
23 Oct - 16:46:38 10° NNW 16:51:00 64° NE 16:55:25 10° SE daylight
24 Oct - 04:55:57 10° SW 05:00:41 73° NW 05:05:22 10° NNE visible
24 Oct - 15:26:17 10° NNE 15:28:34 14° NE 15:30:51 10° E daylight
24 Oct - 17:05:58 10° WNW 17:10:08 40° SW 17:14:19 10° SSE daylight
25 Oct - 03:34:20 10° S 03:38:13 25° SE 03:42:05 10° ENE visible
25 Oct - 05:15:54 10° WSW 05:19:49 26° NW 05:23:42 10° N visible
25 Oct - 15:43:36 10° NNW 15:47:44 39° NE 15:51:53 10° ESE daylight
25 Oct - 17:26:53 10° W 17:29:18 14° SW 17:31:44 10° SSW daylight
26 Oct - 03:52:38 10° SSW 03:57:21 71° SE 04:02:03 10° NE visible
26 Oct - 16:02:26 10° NW 16:06:50 66° SW 16:11:14 10° SSE daylight
27 Oct - 02:31:51 10° S 02:34:50 17° SE 02:37:49 10° E visible
27 Oct - 04:12:02 10° WSW 04:16:27 39° NW 04:20:51 10° NNE visible
27 Oct - 14:40:46 10° N 14:44:24 25° NE 14:48:03 10° ESE daylight
27 Oct - 16:22:30 10° WNW 16:25:57 22° SW 16:29:24 10° S daylight
28 Oct - 02:49:28 10° SSW 02:53:59 45° SE 02:58:29 10° ENE visible
28 Oct - 04:33:00 10° W 04:35:36 15° NW 04:38:11 10° NNW visible
28 Oct - 14:59:04 10° NW 15:03:30 76° NE 15:07:55 10° SE daylight
29 Oct - 01:30:28 10° SE 01:31:24 11° SE 01:32:20 10° ESE night (unlit)
29 Oct - 03:08:23 10° SW 03:13:04 62° NW 03:17:43 10° NNE visible
29 Oct - 13:38:15 10° N 13:41:01 16° NE 13:43:47 10° E daylight
29 Oct - 15:18:32 10° WNW 15:22:34 34° SW 15:26:37 10° SSE daylight
30 Oct - 01:46:29 10° S 01:50:34 29° SE 01:54:38 10° ENE night (unlit)
30 Oct - 03:28:30 10° WSW 03:32:09 22° NW 03:35:49 10° N night (unlit)
30 Oct - 13:55:52 10° NNW 14:00:07 46° NE 14:04:22 10° SE daylight
30 Oct - 15:39:54 10° WSW 15:41:42 12° SW 15:43:30 10° SSW daylight
